Starlink 3297

operational
NORAD ID: 50159 Int'l Des: 2021-125 Owner: SPXS Country: US Constellation: starlink
LEOCIRCULAR

About Starlink 3297

Description loading...

Live Position

Loading 3D Globe...

Upcoming Passes

Altitude History

Altitude vs Time

uPlot chart will show altitude changes over time

Two-Line Element Set

1 50159U 21125D 25305.45468117 -.00006023 00000-0 -36123-3 0 9993
2 50159 53.2171 114.8014 0001595 84.7268 275.3906 15.08782991217096
Epoch: Nov 1, 2025 • Age: 15 hours

Current Status

Altitude 552.1 km
Velocity 7.59 km/s
Sub-Earth Point -35.49°S, 110.94°W
Launch Date Dec 18, 2021
Age 3.8 years
Type internet

Technical Details

Classification Payload
Mass 290.00 kg
Dry Mass 270.00 kg
Total Mass 290.00 kg
Length 0.20 m
Diameter 2.80 m
Span 9.00 m
Shape Box + pan
Manufacturer SPXS
Bus Type Starlink
Phase Status In Orbit
Owner/State SPXS/US

Large Constellations

Loading constellations...